Home   Weather   Fort-de-France   Past weeks

Flag for Martinique Past Weather in Fort-de-France, Martinique — Yesterday and Last 2 Weeks

Now
79 °F

Passing clouds.


Feels Like: 82 °F
Forecast: 77 / 84 °F
Wind: 5 mph from Northeast

Location: Le Lamentin Airport

Current Time: Dec 5, 2016 at 8:58:07 pm

Latest Report: Dec 5, 2016 at 8:30 pm


Visibility: N/A

Pressure: 29.98 "Hg

Humidity: 79%

Dew Point: 72 °F

Location of Fort-de-FranceLocation

Past Weather in Fort-de-France — Graph

°F

Fort-de-France Temperature Yesterday

Maximum temperature yesterday: 88 °F (at 11:00 am)
Minimum temperature yesterday: 72 °F (at 6:00 am)
Average temperature yesterday: 79 °F

High & Low Weather Summary for the Past Weeks

 TemperatureHumidityPressure
High88 °F (Nov 25, 11:00 am)100% (Nov 28, 10:00 pm)30.01 "Hg (Nov 28, 10:00 pm)
Low70 °F (Nov 29, 7:00 pm)49% (Dec 4, 12:00 pm)29.74 "Hg (Nov 28, 3:30 pm)
Average79 °F81%29.89 "Hg
* Reported Nov 20 7:00 pm — Dec 5 7:30 pm, Fort-de-France, Weather by CustomWeather, © 2016

Note: Actual official high and low records may vary slightly from our data, if they occured in-between our weather recording intervals... More about our weather records

Advertising

Fort-de-France Weather History for the Previous 24 Hours

Scroll right to see more
 ConditionsComfort  
Time TempWeatherWind HumidityBarometerVisibility
7:30 pm
Mon, Dec 5
79 °FPassing clouds.5 mph79%29.95 "HgN/A
7:00 pm79 °FPassing clouds.3 mph79%29.95 "HgN/A
6:30 pm79 °FPassing clouds.6 mph79%29.95 "HgN/A
6:00 pm81 °FPassing clouds.8 mph74%29.92 "HgN/A
5:30 pm81 °FPassing clouds.9 mph74%29.92 "HgN/A
5:00 pm82 °FBroken clouds.12 mph70%29.92 "HgN/A
4:30 pm84 °FPassing clouds.13 mph70%29.92 "HgN/A
4:00 pm84 °FScattered clouds.14 mph66%29.92 "HgN/A
3:30 pm84 °FPartly sunny.14 mph66%29.92 "HgN/A
3:00 pm84 °FBroken clouds.13 mph70%29.92 "HgN/A
2:30 pm86 °FScattered clouds.14 mph66%29.89 "HgN/A
2:00 pm86 °FBroken clouds.15 mph62%29.92 "HgN/A
1:30 pm86 °FScattered clouds.14 mph66%29.92 "HgN/A
1:00 pm86 °FPartly sunny.13 mph66%29.92 "HgN/A
12:30 pm88 °FBroken clouds.14 mph62%29.95 "HgN/A
12:00 pm84 °FLight rain. Partly sunny.14 mph70%29.95 "HgN/A
11:30 am86 °FPartly sunny.15 mph66%29.98 "HgN/A
11:00 am86 °FPartly sunny.14 mph70%29.98 "HgN/A
10:30 am84 °FBroken clouds.12 mph74%29.98 "HgN/A
10:00 am84 °FPartly sunny.8 mph74%29.98 "HgN/A
9:30 am82 °FBroken clouds.13 mph74%29.98 "HgN/A
9:00 am82 °FBroken clouds.5 mph79%29.98 "HgN/A
8:30 am82 °FPartly sunny.3 mph79%29.98 "HgN/A
8:00 am81 °FPassing clouds.2 mph84%29.98 "HgN/A
7:30 am75 °FScattered clouds.No wind94%29.95 "HgN/A
7:00 am75 °FBroken clouds.No wind94%29.95 "HgN/A
6:30 am73 °FBroken clouds.No wind94%29.95 "HgN/A
6:00 am73 °FPartly cloudy.2 mph94%29.95 "HgN/A
5:30 am73 °FPartly cloudy.1 mph94%29.92 "Hg5 mi
5:00 am73 °FPassing clouds.1 mph94%29.92 "HgN/A
4:30 am73 °FMostly cloudy.No wind94%29.92 "HgN/A
4:00 am72 °FMostly cloudy.No wind94%29.92 "HgN/A
3:30 am72 °FPassing clouds.No wind94%29.92 "HgN/A
3:00 am72 °FClear.2 mph94%29.92 "Hg10 mi
2:30 am72 °FClear.1 mph94%29.92 "Hg10 mi
2:00 am72 °FPassing clouds.No wind94%29.92 "HgN/A
1:30 am72 °FPassing clouds.No wind94%29.92 "HgN/A
1:00 am72 °FClear.1 mph94%29.92 "Hg10 mi
12:30 am73 °FPassing clouds.1 mph89%29.95 "HgN/A
12:00 am73 °FPassing clouds.2 mph94%29.95 "HgN/A
11:30 pm
Sun, Dec 4
73 °FPassing clouds.3 mph94%29.95 "HgN/A
11:00 pm75 °FPassing clouds.2 mph89%29.95 "HgN/A
10:30 pm75 °FPassing clouds.1 mph89%29.95 "HgN/A
10:00 pm75 °FPassing clouds.2 mph89%29.95 "HgN/A
9:30 pm75 °FPassing clouds.2 mph89%29.95 "HgN/A
9:00 pm75 °FPassing clouds.3 mph89%29.95 "HgN/A
8:30 pm75 °FClear.2 mph89%29.95 "Hg10 mi
8:00 pm77 °FClear.3 mph83%29.92 "Hg10 mi
Weather by CustomWeather, © 2016

See weather overviewHow to use our weather pages